EN

Hourly Weather Aligarh

Today, 26 January, Tuesday

Time Temperature Precipitation Wind Pressure Humidity
00:00 +10°C° 0 mm 2 mps 745 mmHg 53%
01:00 +9°C° 0 mm 2 mps 745 mmHg 52%
02:00 +9°C° 0 mm 2 mps 744 mmHg 52%
03:00 +8°C° 0 mm 2 mps 744 mmHg 52%
04:00 +8°C° 0 mm 2 mps 744 mmHg 53%
05:00 +7°C° 0 mm 2 mps 745 mmHg 55%
06:00 +8°C° 0 mm 2 mps 745 mmHg 55%
07:00 +10°C° 0 mm 1 mps 746 mmHg 55%
08:00 +11°C° 0 mm 1 mps 746 mmHg 54%
09:00 +13°C° 0 mm 1 mps 746 mmHg 50%
10:00 +16°C° 0 mm 2 mps 747 mmHg 46%
11:00 +19°C° 0 mm 2 mps 747 mmHg 42%
12:00 +20°C° 0 mm 2 mps 746 mmHg 39%
13:00 +21°C° 0 mm 2 mps 745 mmHg 35%
14:00 +21°C° 0 mm 2 mps 744 mmHg 32%
15:00 +20°C° 0 mm 2 mps 744 mmHg 37%
16:00 +19°C° 0 mm 2 mps 744 mmHg 42%
17:00 +17°C° 0 mm 2 mps 744 mmHg 48%
18:00 +16°C° 0 mm 2 mps 744 mmHg 50%
19:00 +15°C° 0 mm 2 mps 744 mmHg 52%
20:00 +13°C° 0 mm 2 mps 745 mmHg 55%
21:00 +13°C° 0 mm 2 mps 745 mmHg 55%
22:00 +12°C° 0 mm 2 mps 745 mmHg 56%
23:00 +12°C° 0 mm 2 mps 745 mmHg 56%

Tomorrow, 27 January, Wednesday

Time Temperature Precipitation Wind Pressure Humidity
00:00 +10°C° 0 mm 2 mps 745 mmHg 56%
01:00 +10°C° 0 mm 2 mps 744 mmHg 56%
02:00 +9°C° 0 mm 2 mps 744 mmHg 56%
03:00 +9°C° 0 mm 2 mps 744 mmHg 57%
04:00 +9°C° 0 mm 2 mps 744 mmHg 57%
05:00 +8°C° 0 mm 2 mps 744 mmHg 58%
06:00 +9°C° 0 mm 2 mps 745 mmHg 57%
07:00 +10°C° 0 mm 2 mps 745 mmHg 55%
08:00 +12°C° 0 mm 2 mps 746 mmHg 54%
09:00 +14°C° 0 mm 2 mps 746 mmHg 47%
10:00 +17°C° 0 mm 2 mps 746 mmHg 41%
11:00 +20°C° 0 mm 2 mps 746 mmHg 34%
12:00 +21°C° 0 mm 2 mps 746 mmHg 32%
13:00 +21°C° 0 mm 2 mps 745 mmHg 30%
14:00 +23°C° 0 mm 2 mps 744 mmHg 27%
15:00 +21°C° 0 mm 2 mps 744 mmHg 32%
16:00 +19°C° 0 mm 2 mps 743 mmHg 36%
17:00 +18°C° 0 mm 2 mps 743 mmHg 40%
18:00 +16°C° 0 mm 2 mps 744 mmHg 40%
19:00 +15°C° 0 mm 2 mps 744 mmHg 40%
20:00 +13°C° 0 mm 2 mps 745 mmHg 41%
21:00 +13°C° 0 mm 2 mps 745 mmHg 42%
22:00 +12°C° 0 mm 2 mps 745 mmHg 43%
23:00 +12°C° 0 mm 1 mps 745 mmHg 43%

Day after tomorrow, 28 January, Thursday

Time Temperature Precipitation Wind Pressure Humidity
00:00 +11°C° 0 mm 1 mps 745 mmHg 44%
01:00 +11°C° 0 mm 1 mps 744 mmHg 45%
02:00 +10°C° 0 mm 1 mps 744 mmHg 46%
03:00 +10°C° 0 mm 1 mps 744 mmHg 47%
04:00 +9°C° 0 mm 1 mps 744 mmHg 48%
05:00 +9°C° 0 mm 1 mps 744 mmHg 49%
06:00 +10°C° 0 mm 1 mps 745 mmHg 49%
07:00 +11°C° 0 mm 1 mps 745 mmHg 49%
08:00 +12°C° 0 mm 1 mps 746 mmHg 48%
09:00 +14°C° 0 mm 1 mps 746 mmHg 42%
10:00 +18°C° 0 mm 1 mps 746 mmHg 36%
11:00 +21°C° 0 mm 1 mps 747 mmHg 30%
12:00 +22°C° 0 mm 1 mps 746 mmHg 28%
13:00 +21°C° 0 mm 2 mps 746 mmHg 26%
14:00 +23°C° 0 mm 2 mps 745 mmHg 23%
15:00 +21°C° 0 mm 2 mps 745 mmHg 28%
16:00 +19°C° 0 mm 2 mps 744 mmHg 32%
17:00 +19°C° 0 mm 1 mps 744 mmHg 37%
18:00 +16°C° 0 mm 1 mps 744 mmHg 37%
19:00 +15°C° 0 mm 2 mps 745 mmHg 36%
20:00 +14°C° 0 mm 2 mps 745 mmHg 36%
21:00 +13°C° 0 mm 2 mps 746 mmHg 36%
22:00 +12°C° 0 mm 2 mps 746 mmHg 37%
23:00 +12°C° 0 mm 2 mps 746 mmHg 38%

29 January, Friday

Time Temperature Precipitation Wind Pressure Humidity
00:00 +10°C° 0 mm 2 mps 746 mmHg 38%
01:00 +10°C° 0 mm 2 mps 745 mmHg 39%
02:00 +10°C° 0 mm 2 mps 745 mmHg 40%
03:00 +9°C° 0 mm 2 mps 745 mmHg 41%
04:00 +9°C° 0 mm 2 mps 745 mmHg 43%
05:00 +8°C° 0 mm 2 mps 745 mmHg 44%
06:00 +9°C° 0 mm 2 mps 746 mmHg 45%
07:00 +10°C° 0 mm 2 mps 746 mmHg 45%
08:00 +12°C° 0 mm 1 mps 747 mmHg 46%
09:00 +14°C° 0 mm 2 mps 747 mmHg 40%
10:00 +17°C° 0 mm 2 mps 747 mmHg 34%
11:00 +20°C° 0 mm 2 mps 747 mmHg 28%
12:00 +21°C° 0 mm 3 mps 747 mmHg 26%
13:00 +22°C° 0 mm 3 mps 746 mmHg 24%
14:00 +23°C° 0 mm 4 mps 746 mmHg 23%
15:00 +21°C° 0 mm 3 mps 745 mmHg 27%
16:00 +19°C° 0 mm 3 mps 745 mmHg 32%
17:00 +18°C° 0 mm 2 mps 744 mmHg 37%
18:00 +16°C° 0 mm 2 mps 745 mmHg 37%
19:00 +15°C° 0 mm 2 mps 745 mmHg 37%
20:00 +13°C° 0 mm 2 mps 745 mmHg 38%
21:00 +13°C° 0 mm 2 mps 745 mmHg 37%
22:00 +12°C° 0 mm 2 mps 745 mmHg 37%
23:00 +10°C° 0 mm 2 mps 745 mmHg 37%

30 January, Saturday

Time Temperature Precipitation Wind Pressure Humidity
00:00 +10°C° 0 mm 2 mps 745 mmHg 38%
01:00 +10°C° 0 mm 2 mps 745 mmHg 38%
02:00 +9°C° 0 mm 2 mps 745 mmHg 38%
03:00 +9°C° 0 mm 2 mps 744 mmHg 38%
04:00 +8°C° 0 mm 2 mps 744 mmHg 39%
05:00 +8°C° 0 mm 2 mps 744 mmHg 39%
06:00 +9°C° 0 mm 2 mps 745 mmHg 39%
07:00 +9°C° 0 mm 2 mps 745 mmHg 39%
08:00 +10°C° 0 mm 2 mps 746 mmHg 39%
09:00 +13°C° 0 mm 3 mps 746 mmHg 35%
10:00 +17°C° 0 mm 3 mps 746 mmHg 31%
11:00 +20°C° 0 mm 4 mps 746 mmHg 26%
12:00 +21°C° 0 mm 4 mps 746 mmHg 25%
13:00 +21°C° 0 mm 4 mps 745 mmHg 24%
14:00 +22°C° 0 mm 5 mps 745 mmHg 23%
15:00 +21°C° 0 mm 4 mps 744 mmHg 28%
16:00 +19°C° 0 mm 3 mps 744 mmHg 33%
17:00 +17°C° 0 mm 2 mps 744 mmHg 38%
18:00 +16°C° 0 mm 2 mps 744 mmHg 38%
19:00 +15°C° 0 mm 2 mps 744 mmHg 39%
20:00 +13°C° 0 mm 2 mps 745 mmHg 40%
21:00 +13°C° 0 mm 2 mps 745 mmHg 39%
22:00 +12°C° 0 mm 2 mps 745 mmHg 39%
23:00 +12°C° 0 mm 2 mps 745 mmHg 39%

31 January, Sunday

Time Temperature Precipitation Wind Pressure Humidity
00:00 +10°C° 0 mm 2 mps 745 mmHg 38%
01:00 +10°C° 0 mm 2 mps 745 mmHg 38%
02:00 +10°C° 0 mm 2 mps 745 mmHg 37%
03:00 +9°C° 0 mm 2 mps 745 mmHg 37%
04:00 +9°C° 0 mm 2 mps 745 mmHg 36%
05:00 +8°C° 0 mm 2 mps 744 mmHg 36%
06:00 +10°C° 0 mm 1 mps 745 mmHg 36%
07:00 +11°C° 0 mm 1 mps 746 mmHg 37%
08:00 +12°C° 0 mm 1 mps 746 mmHg 37%
09:00 +15°C° 0 mm 1 mps 747 mmHg 33%
10:00 +18°C° 0 mm 1 mps 747 mmHg 29%
11:00 +20°C° 0 mm 2 mps 747 mmHg 24%
12:00 +21°C° 0 mm 2 mps 747 mmHg 23%
13:00 +23°C° 0 mm 2 mps 746 mmHg 21%
14:00 +24°C° 0 mm 2 mps 745 mmHg 20%
15:00 +23°C° 0 mm 2 mps 745 mmHg 24%
16:00 +20°C° 0 mm 2 mps 745 mmHg 29%
17:00 +19°C° 0 mm 1 mps 744 mmHg 34%
18:00 +18°C° 0 mm 1 mps 745 mmHg 33%
19:00 +15°C° 0 mm 1 mps 745 mmHg 33%
20:00 +14°C° 0 mm 1 mps 746 mmHg 33%
21:00 +13°C° 0 mm 1 mps 746 mmHg 33%
22:00 +12°C° 0 mm 0 mps 746 mmHg 34%
23:00 +11°C° 0 mm 0 mps 747 mmHg 34%
Show more